sat.trackr.live / text

‹ back to catalog

STARLINK-32025

NORAD 60138 · 2024-120D

PAYLOAD ACTIVE UNKNOWN

§ Identity

Operator
Country
US
Launch date
2024-06-27
Launch site
AFETR
Launch vehicle
Mass (kg)
RCS (m²)

Purposes: comms

External: N2YO · Heavens-Above · Gunter

§ Orbital elements

Epoch: 2026-05-25T04:45:45.491616Z

Period
94.04 min
Inclination
53.1599°
Eccentricity
0.0006232
Mean motion
15.31216561 rev/d
Perigee alt
467.9 km
Apogee alt
476.5 km
Semi-major
6,850.3 km
B*
-7.0049e-3
RAAN
324.2900°
Arg perigee
266.0183°
Mean anomaly
94.0106°
Rev number
10,809

§ Raw data

STARLINK-320251 60138U 24120D   26145.19844319 -.00208795  00000+0 -70049-2 0  99982 60138  53.1599 324.2900 0006232 266.0183  94.0106 15.31216561108090

JSON: /api/v1/satellites/60138 · /tle

For live sub-satellite position, see the globe view (requires WebGL).

§ Visibility from observer

Set your observer location to see the next 7 days of passes ≥ 10°. The values pass through the URL so the page stays shareable.

No JS? Fill the form by hand. The geolocation button needs JavaScript.